Location: Miles
(41.4492°N, 81.6087°W)
Time: 08:48:33
(UTC+00:00)

Vanguard 1 Rocket - Pass Details

Date: 16 September 2024
Orbit: 650 x 4218 km, 34.3° (Epoch: 09 October)

Event Time Altitude Azimuth Distance (km) Brightness Sun altitude
Rises 11:23:37 0° 264° (W) 6,238 11.0 2.0°
Reaches altitude 10° 11:27:02 10° 263° (W) 5,597 10.8 2.7°
Maximum altitude 11:46:17 71° 184° (S) 4,077 10.8 6.3°
Drops below altitude 10° 12:12:24 10° 107° (ESE) 7,213 14.3 11.1°
Sets 12:17:35 0° 106° (ESE) 8,016 14.2 12.1°
